Retour au catalogue

STARLINK-5375

ActifCommunicationsVLEO
NORAD 56140·PAYLOAD·🇺🇸 United States

Lancé Mar 29, 2023 depuis Cape Canaveral Space Force Station

Loading…

Prochains Passages (prochaines 24 heures)

TLE

FraisSource: CelesTrak SupGP

Époque: Sep 15, 2026, 02:03 UTC

1 56140C 23046AZ  26258.08590278  .00026843  00000+0  97232-3 0  2589
2 56140  43.0016 157.7512 0001019 264.1881  15.8212 15.27563138    12

Suivez STARLINK-5375 en temps réel avec AllMySat

Download on the App Store